Regional Weather Roundup
Issued by NWS Jackson, KY

Home | Current Version | Previous Version | Graphics & Text | Print | Product List | Glossary On
Versions: 1 2 3 4 5 6 7 8 9 10 11 12 13 14 15 16 17 18 19 20 21 22 23 24 25 26 27 28 29 30 31 32 33 34 35 36 37 38 39 40 41 42 43 44 45 46 47 48 49 50
889
ASUS43 KJKL 140610
RWRJKL

EAST KENTUCKY HOURLY WEATHER ROUNDUP
NATIONAL WEATHER SERVICE JACKSON KY
100 AM EST SUN FEB 14 2016

NOTE: "FAIR" INDICATES FEW OR NO CLOUDS BELOW 12,000 FEET WITH
NO SIGNIFICANT WEATHER AND/OR OBSTRUCTIONS TO VISIBILITY.

* THESE REPORTS ARE NOT UNDER NWS QUALITY CONTROL AND MAY NOT
  REPORT WEATHER SUCH AS PRECIPITATION AND FOG.

KYZ079-080-083-085-087-088-110-112-115-119-120-140700
...EASTERN KENTUCKY...

CITY           SKY/WX    TMP DP  RH WIND       PRES   REMARKS
JACKSON        CLOUDY    13   1  59 VRB3      30.41F
6HR MIN TEMP:  13; 6HR MAX TEMP:  17;

LONDON         CLOUDY    16   4  59 E5        30.40F WCI   9
6HR MIN TEMP:  15; 6HR MAX TEMP:  20;

SOMERSET*      CLOUDY    18   3  53 CALM      30.45S
MONTICELLO*    CLOUDY    17   8  67 NW6       30.44F WCI   9
6HR MIN TEMP:  14; 6HR MAX TEMP:  20;

WILLIAMSBURG*  CLOUDY    14   9  79 CALM      30.41S
MIDDLESBORO*   CLOUDY    15  10  78 CALM      30.41F
6HR MIN TEMP:  15; 6HR MAX TEMP:  22;

HARLAN APT*      N/A     14   5  67 CALM      30.38S
HAZARD APT*    CLEAR    -26 -29  83 CALM      30.41F
BLACK MTN*       N/A      1   0  92 N3          N/A
BIG SANDY*     CLOUDY    10   2  68 NE3       30.43F
6HR MIN TEMP:  10; 6HR MAX TEMP:  18;

MOREHEAD APT*  CLOUDY    12   0  57 E5        30.48S WCI   4
$$

KYZ035-036-041-042-044-050-067-078-099-140700
...CENTRAL KENTUCKY...

CITY           SKY/WX    TMP DP  RH WIND       PRES   REMARKS
MT STERLING*   CLOUDY    14   5  67 E6        30.46F WCI   5
DANVILLE*      PTCLDY    18   7  62 E7        30.45S WCI   8
RICHMOND*      PTCLDY    16   7  67 E3        30.43S
LEXINGTON      CLOUDY    17   3  54 E8        30.44S WCI   7
6HR MIN TEMP:  14; 6HR MAX TEMP:  19;

FRANKFORT      CLOUDY    17   2  51 E7        30.45S WCI   8
6HR MIN TEMP:  15; 6HR MAX TEMP:  20;

$$

KYZ091>093-OHZ055-061-077-WVZ005-015-034-035-042-140700
...SOUTHERN OHIO/WEST VIRGINIA...

CITY           SKY/WX    TMP DP  RH WIND       PRES   REMARKS
COVINGTON      CLOUDY    11   6  81 CALM      30.46S
COLUMBUS       CLOUDY     7  -3  64 W5        30.48R WCI  -2
DAYTON         CLOUDY     7   0  73 NW3       30.46F
WILMINGTON     CLOUDY     2  -3  80 CALM      30.45F
HUNTINGTON       N/A     10   1  67 CALM      30.48F
CHARLESTON       N/A      7  -1  70 CALM      30.46F
PINEVILLE*       N/A     -1  -5  81 MISG      30.43F
BECKLEY          N/A      2  -7  66 N5        30.30F WCI  -8
$$

VAZ002-007-008-TNZ017-027-036-066-071-140700
...SOUTHWEST VIRGINIA/EAST TENNESSEE...

CITY           SKY/WX    TMP DP  RH WIND       PRES   REMARKS
BRISTOL        CLOUDY    13   5  70 CALM      30.38F
KNOXVILLE      CLOUDY    20   7  57 NE8       30.38F WCI  10
OAK RIDGE      CLOUDY    22   5  48 NE3       30.41F
CROSSVILLE     CLEAR     19   4  51 NE5       30.33S WCI  12
NASHVILLE      CLOUDY    27   5  39 E3        30.43R
$$

...KEY TO REMARKS...
VSB - VISIBILITY IN MILES
WCI - WIND CHILL INDEX
HX  - HEAT INDEX

$$




USA.gov is the U.S. government's official web portal to all federal, state and local government web resources and services.